TimeEDT,TemperatureF,Dew PointF,Humidity,Sea Level PressureIn,VisibilityMPH,Wind Direction,Wind SpeedMPH,Gust SpeedMPH,PrecipitationIn,Events,Conditions,WindDirDegrees,DateUTC
12:15 AM,60.8,60.8,100,29.95,10.0,Calm,Calm,-,N/A,,Unknown,0,2013-08-02 04:15:00
12:35 AM,60.8,60.8,100,29.96,10.0,Calm,Calm,-,N/A,,Unknown,0,2013-08-02 04:35:00
12:55 AM,60.8,60.8,100,29.96,10.0,Calm,Calm,-,N/A,,Unknown,0,2013-08-02 04:55:00
1:15 AM,60.8,60.8,100,29.95,10.0,Calm,Calm,-,N/A,,Unknown,0,2013-08-02 05:15:00
1:35 AM,60.8,60.8,100,29.95,10.0,Calm,Calm,-,N/A,,Unknown,0,2013-08-02 05:35:00
1:55 AM,60.8,60.8,100,29.95,10.0,Calm,Calm,-,N/A,,Unknown,0,2013-08-02 05:55:00
2:15 AM,60.8,60.8,100,29.95,10.0,Calm,Calm,-,N/A,,Unknown,0,2013-08-02 06:15:00
2:35 AM,60.8,60.8,100,29.94,10.0,Calm,Calm,-,N/A,,Unknown,0,2013-08-02 06:35:00
2:55 AM,59.0,59.0,100,29.94,10.0,Calm,Calm,-,N/A,,Unknown,0,2013-08-02 06:55:00
3:15 AM,59.0,59.0,100,29.95,10.0,Calm,Calm,-,N/A,,Unknown,0,2013-08-02 07:15:00
3:35 AM,60.8,60.8,100,29.95,10.0,Calm,Calm,-,N/A,,Unknown,0,2013-08-02 07:35:00
3:55 AM,60.8,60.8,100,29.95,10.0,Calm,Calm,-,N/A,,Unknown,0,2013-08-02 07:55:00
4:15 AM,60.8,60.8,100,29.95,7.0,Calm,Calm,-,N/A,,Unknown,0,2013-08-02 08:15:00
4:35 AM,60.8,60.8,100,29.95,10.0,Calm,Calm,-,N/A,,Unknown,0,2013-08-02 08:35:00
4:55 AM,60.8,60.8,100,29.94,10.0,Calm,Calm,-,N/A,,Unknown,0,2013-08-02 08:55:00
5:15 AM,60.8,60.8,100,29.94,10.0,Calm,Calm,-,N/A,,Unknown,0,2013-08-02 09:15:00
5:35 AM,60.8,60.8,100,29.95,10.0,Calm,Calm,-,N/A,,Unknown,0,2013-08-02 09:35:00
5:55 AM,60.8,60.8,100,29.96,7.0,Calm,Calm,-,N/A,,Unknown,0,2013-08-02 09:55:00
6:15 AM,60.8,60.8,100,29.96,7.0,Calm,Calm,-,N/A,,Unknown,0,2013-08-02 10:15:00
6:35 AM,60.8,60.8,100,29.97,4.0,Calm,Calm,-,N/A,,Unknown,0,2013-08-02 10:35:00
6:55 AM,60.8,60.8,100,29.98,5.0,Calm,Calm,-,N/A,,Unknown,0,2013-08-02 10:55:00
7:15 AM,60.8,60.8,100,29.99,4.0,Calm,Calm,-,N/A,,Unknown,0,2013-08-02 11:15:00
7:35 AM,60.8,60.8,100,29.99,5.0,WSW,3.5,-,N/A,,Unknown,240,2013-08-02 11:35:00
7:55 AM,60.8,60.8,100,30.00,7.0,SW,4.6,-,N/A,,Unknown,230,2013-08-02 11:55:00
8:35 AM,62.6,62.6,100,30.00,7.0,WSW,6.9,-,N/A,,Unknown,240,2013-08-02 12:35:00
8:55 AM,64.4,64.4,100,30.00,10.0,SW,8.1,-,N/A,,Unknown,230,2013-08-02 12:55:00
9:15 AM,64.4,64.4,100,30.00,10.0,WSW,5.8,-,N/A,,Unknown,240,2013-08-02 13:15:00
9:35 AM,66.2,64.4,94,29.99,10.0,West,6.9,-,N/A,,Unknown,260,2013-08-02 13:35:00
9:55 AM,66.2,64.4,94,29.99,10.0,WSW,8.1,-,N/A,,Unknown,250,2013-08-02 13:55:00
10:15 AM,68.0,64.4,88,29.99,10.0,SW,6.9,-,N/A,,Unknown,230,2013-08-02 14:15:00
10:35 AM,69.8,66.2,88,29.99,10.0,WSW,6.9,-,N/A,,Unknown,240,2013-08-02 14:35:00
10:55 AM,69.8,64.4,83,30.00,10.0,West,8.1,-,N/A,,Unknown,270,2013-08-02 14:55:00
11:15 AM,71.6,62.6,73,29.99,10.0,NW,6.9,-,N/A,,Unknown,320,2013-08-02 15:15:00
11:35 AM,71.6,62.6,73,30.00,10.0,West,8.1,-,N/A,,Unknown,280,2013-08-02 15:35:00
11:55 AM,71.6,60.8,69,30.00,10.0,West,10.4,-,N/A,,Unknown,270,2013-08-02 15:55:00
12:15 PM,73.4,59.0,61,30.00,10.0,WNW,8.1,-,N/A,,Unknown,300,2013-08-02 16:15:00
12:35 PM,73.4,60.8,65,30.00,10.0,West,10.4,-,N/A,,Unknown,280,2013-08-02 16:35:00
12:55 PM,73.4,59.0,61,30.00,10.0,West,10.4,-,N/A,,Unknown,280,2013-08-02 16:55:00
1:15 PM,73.4,57.2,57,29.99,10.0,West,12.7,18.4,N/A,,Unknown,260,2013-08-02 17:15:00
1:35 PM,73.4,57.2,57,30.00,10.0,West,13.8,17.3,N/A,,Unknown,280,2013-08-02 17:35:00
1:55 PM,73.4,53.6,50,30.00,10.0,West,13.8,20.7,N/A,,Unknown,280,2013-08-02 17:55:00
2:15 PM,73.4,53.6,50,30.00,10.0,West,16.1,21.9,N/A,,Unknown,280,2013-08-02 18:15:00
2:35 PM,73.4,53.6,50,30.01,10.0,West,11.5,21.9,N/A,,Unknown,280,2013-08-02 18:35:00
2:55 PM,73.4,55.4,53,30.02,10.0,West,17.3,-,N/A,,Unknown,270,2013-08-02 18:55:00
3:15 PM,73.4,55.4,53,30.02,10.0,WNW,11.5,18.4,N/A,,Unknown,290,2013-08-02 19:15:00
3:35 PM,71.6,55.4,57,30.01,10.0,WSW,12.7,19.6,N/A,,Unknown,250,2013-08-02 19:35:00
3:55 PM,71.6,55.4,57,29.99,10.0,WSW,11.5,-,N/A,,Unknown,250,2013-08-02 19:55:00
4:15 PM,71.6,57.2,60,30.00,10.0,West,10.4,-,N/A,,Unknown,280,2013-08-02 20:15:00
4:35 PM,71.6,57.2,60,30.00,10.0,West,8.1,-,N/A,,Unknown,270,2013-08-02 20:35:00
4:55 PM,73.4,57.2,57,30.00,10.0,WNW,9.2,-,N/A,,Unknown,300,2013-08-02 20:55:00
5:15 PM,73.4,55.4,53,29.99,10.0,West,12.7,-,N/A,,Unknown,280,2013-08-02 21:15:00
5:35 PM,71.6,57.2,60,29.98,10.0,West,8.1,-,N/A,,Unknown,270,2013-08-02 21:35:00
5:55 PM,73.4,57.2,57,29.98,10.0,West,10.4,-,N/A,,Unknown,280,2013-08-02 21:55:00
6:15 PM,73.4,55.4,53,29.98,10.0,West,10.4,-,N/A,,Unknown,270,2013-08-02 22:15:00
6:35 PM,73.4,55.4,53,29.97,10.0,West,10.4,-,N/A,,Unknown,260,2013-08-02 22:35:00
6:55 PM,71.6,57.2,60,29.97,10.0,West,8.1,-,N/A,,Unknown,270,2013-08-02 22:55:00
7:15 PM,71.6,57.2,60,29.97,10.0,West,6.9,-,N/A,,Unknown,260,2013-08-02 23:15:00
7:35 PM,69.8,59.0,68,29.97,10.0,WSW,5.8,-,N/A,,Unknown,250,2013-08-02 23:35:00
7:55 PM,69.8,59.0,68,29.97,10.0,SW,3.5,-,N/A,,Unknown,230,2013-08-02 23:55:00
8:15 PM,68.0,60.8,78,29.97,10.0,Calm,Calm,-,N/A,,Unknown,0,2013-08-03 00:15:00
8:35 PM,68.0,60.8,78,29.98,10.0,Calm,Calm,-,N/A,,Unknown,0,2013-08-03 00:35:00
8:55 PM,69.8,60.8,73,29.98,10.0,Calm,Calm,-,N/A,,Unknown,0,2013-08-03 00:55:00
9:15 PM,66.2,60.8,83,29.98,10.0,Calm,Calm,-,N/A,,Unknown,0,2013-08-03 01:15:00
9:35 PM,64.4,62.6,94,29.98,10.0,Calm,Calm,-,N/A,,Unknown,0,2013-08-03 01:35:00
9:55 PM,66.2,62.6,88,29.98,10.0,Calm,Calm,-,N/A,,Unknown,0,2013-08-03 01:55:00
10:15 PM,66.2,62.6,88,29.99,10.0,Calm,Calm,-,N/A,,Unknown,0,2013-08-03 02:15:00
10:35 PM,66.2,62.6,88,29.98,10.0,Calm,Calm,-,N/A,,Unknown,0,2013-08-03 02:35:00
10:55 PM,66.2,62.6,88,29.98,10.0,Calm,Calm,-,N/A,,Unknown,0,2013-08-03 02:55:00
11:15 PM,66.2,62.6,88,29.98,10.0,WSW,3.5,-,N/A,,Unknown,240,2013-08-03 03:15:00
11:35 PM,66.2,64.4,94,29.98,10.0,Calm,Calm,-,N/A,,Unknown,0,2013-08-03 03:35:00
11:55 PM,66.2,64.4,94,29.98,10.0,WSW,6.9,-,N/A,,Unknown,250,2013-08-03 03:55:00